Location: Mountain View
(37.3861°N, 122.0839°W)
Time: 08:52:39
(UTC-07:00)

Tiangong 2 - Visible Passes

Search period start: 23 August 2017 00:00
Search period end: 02 September 2017 00:00
Orbit: 390 x 395 km, 42.8° (Epoch: 23 August)

Date Brightness Start Highest point End Pass type
(mag) Time Alt. Az. Time Alt. Az. Time Alt. Az.
23 Aug 3.0 04:18:32 31° NE 04:18:32 31° NE 04:20:29 10° ENE visible
23 Aug 2.7 05:51:44 10° WNW 05:54:36 29° N 05:57:30 10° ENE visible
24 Aug 2.6 04:56:27 26° NW 04:57:23 31° N 05:00:19 10° ENE visible
25 Aug 3.9 04:02:01 19° NE 04:02:01 19° NE 04:03:12 10° ENE visible
25 Aug 2.7 05:34:36 10° WNW 05:37:32 31° N 05:40:28 10° ENE visible
26 Aug 2.7 04:40:01 29° N 04:40:17 29° N 04:43:10 10° ENE visible
27 Aug 4.6 03:45:41 12° ENE 03:45:41 12° ENE 03:45:57 10° ENE visible
27 Aug 2.4 05:18:04 15° NW 05:20:24 38° NNE 05:23:26 10° E visible
28 Aug 3.1 04:23:51 28° NE 04:23:51 28° NE 04:26:06 10° ENE visible
28 Aug 1.1 05:57:05 10° WNW 06:00:18 90° ESE 06:03:32 10° ESE visible
29 Aug 1.6 05:02:09 37° NW 05:03:08 57° NNE 05:06:20 10° E visible
30 Aug 4.1 04:08:15 15° E 04:08:15 15° E 04:09:00 10° E visible
30 Aug 1.4 05:40:39 17° W 05:42:53 45° SSW 05:45:59 10° SE visible
31 Aug 2.3 04:46:58 36° ESE 04:46:58 36° ESE 04:48:59 10° ESE visible
01 Sep 2.6 05:25:56 21° SSW 05:25:56 21° SSW 05:27:55 10° SSE visible
